Regional Weather Roundup
Issued by NWS

Home | Current Version | Previous Version | Text Only | Print | Product List | Glossary On
Versions: 1 2 3 4 5 6 7 8 9 10 11 12 13 14 15 16 17 18 19 20 21 22 23 24 25 26 27 28 29 30 31 32 33 34 35 36 37 38 39 40 41 42 43 44 45 46 47 48 49 50
000
ASCA44 KEWX 011720
RWRMX

LATIN AMERICA AND CARIBBEAN REGIONAL WEATHER ROUNDUP
NATIONAL WEATHER SERVICE AUSTIN/SAN ANTONIO TX
1200 PM CDT WED JUL 01 2015

NOTE: "FAIR" INDICATED FEW OR NO CLOUDS BELOW 12,000 FEET WITH NO
SIGNIFICANT WEATHER AND/OR OBSTRUCTIONS TO VISIBILITY.

BAJA CALIFORNIA

CITY           SKY/WX    TMP DP  RH WIND       PRES   REMARKS
LORETO         SUNNY     88  70  55 NE12      29.87S HX  92
LA PAZ         SUNNY     86  61  42 CALM      29.91S
MEXICALI       CLOUDY    86  72  62 E6        29.87R HX  92
S.J. DEL CABO  SUNNY     91  61  35 N12       29.88S HX  91
TIJUANA        CLOUDY    73  63  68 NW7       29.95S

NORTHWESTERN MEXICO

CITY           SKY/WX    TMP DP  RH WIND       PRES   REMARKS
CULIACAN       MOSUNNY   91  77  62 CALM      29.90F HX 105
DURANGO        PTSUNNY   70  59  68 NE3       30.27F
GUAYMAS        MOSUNNY   91  73  55 CALM      29.85S HX 100
HERMOSILLO     PTSUNNY   88  72  58 SE6       29.95S HX  94
CD. JUAREZ     MOSUNNY   84  43  23 CALM      30.10R
LOS MOCHIS     PTSUNNY   90  70  51 E9        29.90S HX  95
OBREGON        MOSUNNY   90  68  48 SE5       29.88S HX  93

NORTHEASTERN MEXICO

CITY           SKY/WX    TMP DP  RH WIND       PRES   REMARKS
CHIHUAHUA      MOSUNNY   82  54  36 W5        30.14F
MATAMOROS      LGT RAIN  73  72  94 SE12      30.05F FOG
MONCLOVA       PTSUNNY   79  68  69 CALM      30.03F
MONTERREY      PTSUNNY   81  70  69 NE6       30.03F
NUEVO LAREDO   CLOUDY    79  72  78 SE9       30.05R
PIEDRAS NEGRAS MOSUNNY   84  72  65 SE7       30.06F
REYNOSA        LGT RAIN  73  70  88 S12       30.03F FOG
SALTILLO       PTSUNNY   73  63  68 N7        30.20S
TORREON        PTSUNNY   82  61  47 CALM      30.12S
CD. VICTORIA   DRIZZLE   75  73  94 SE3       30.04S

WESTERN MEXICO

CITY           SKY/WX    TMP DP  RH WIND       PRES   REMARKS
AGUASCALIENTES PTSUNNY   66  54  63 SW5       30.30S
COLIMA         MOSUNNY   86  70  58 CALM      30.04S HX  90
DEL BAJIO        N/A    N/A N/A N/A MISG        N/A
GUADALAJARA    MOSUNNY   77  55  47 SW3       30.21S
MANZANILLO     MOSUNNY   95  82  66 SW12      29.85S HX 119
MAZATLAN       MOSUNNY   88  70  55 E7        29.87F HX  92
P. VALLARTA    SUNNY     88  75  66 CALM      29.88F HX  97
URUAPAN        SUNNY     75  59  57 CALM      30.21S
ZACATECAS      PTSUNNY   70  55  60 NW12      30.30F

CENTRAL MEXICO

CITY           SKY/WX    TMP DP  RH WIND       PRES   REMARKS
CUERNAVACA     PTSUNNY   73  61  64 CALM      30.19S
MEXICO CITY    PTSUNNY   68  54  60 VRB3      30.35F
MORELIA        MOSUNNY   72  57  60 N3        30.27F
POZA RICA      CLOUDY    79  73  83 N8        30.02S
PUEBLA         PTSUNNY   66  52  59 S7        30.37S
QUERETARO      PTSUNNY   70  59  68 CALM      30.32F
S. LUIS POTOSI CLOUDY    66  59  77 NE6       30.26S
TAMPICO        CLOUDY    73  70  88 SE12      30.02R
TOLUCA         PTSUNNY   61  50  67 NW7       30.42F

SOUTHERN MEXICO

CITY           SKY/WX    TMP DP  RH WIND       PRES   REMARKS
ACAPULCO       PTSUNNY   91  77  62 SW5       29.88S HX 105
B. DE HUATULCO CLOUDY    88  68  51 CALM      29.95F HX  91
OAXACA         PTSUNNY   73  59  60 CALM      30.24F
P. ESCONDIDO   PTSUNNY   90  75  62 SW9       29.97F HX 100
VERACRUZ       MOSUNNY   86  75  70 E8        29.96S HX  95
ZIHUATANEJO    MOSUNNY   93  75  55 SW12      29.89F HX 104

YUCATAN PENINSULA

CITY           SKY/WX    TMP DP  RH WIND       PRES   REMARKS
CAMPECHE       MOSUNNY   88  73  62 E14       29.97F HX  96
CANCUN         MOSUNNY   88  77  70 NE10      30.07S HX 100
CHETUMAL       PTSUNNY   86  75  70 SE9       30.03R HX  95
CD. DEL CARMEN PTSUNNY   90  72  55 SE17      29.97F HX  96
COZUMEL        MOSUNNY   82  77  83 E12       30.07S HX  91
MERIDA         PTSUNNY   90  73  58 E12       30.04F HX  98
MINATITLAN     MOSUNNY   84  68  58 N12       29.78F
TAPACHULA      MOSUNNY   90  75  62 W12       29.89S HX 100
TUX. GUTIERREZ MOSUNNY   82  66  57 SE7       29.98F
VILLAHERMOSA   PTSUNNY   90  73  58 E20       29.94F HX  98

CENTRAL AMERICA

CITY           SKY/WX    TMP DP  RH WIND       PRES   REMARKS
BELIZE CITY    MOSUNNY   88  79  74 E13       30.00F HX 102
MANAGUA        MOSUNNY   90  70  51 E23       29.86S HX  95

CARIBBEAN

CITY           SKY/WX    TMP DP  RH WIND       PRES   REMARKS
ARUBA          PTSUNNY   88  79  74 E22G33    29.94F HX 102
CURACAO        MOSUNNY   88  73  62 SE21      30.00S HX  96
KINGSTON       MOSUNNY   90  77  66 SE25      29.97F HX 102
NASSAU         PTSUNNY   88  72  58 SE9       30.15F HX  94
SAN JUAN       MOSUNNY   88  75  66 E15       30.10F HX  97
SANTO DOMINGO  MOSUNNY   90  73  58 SE13      30.06S HX  98
ST. CROIX      MOSUNNY   90  72  55 E24G32    30.10F HX  96
ST. KITTS      MOSUNNY   88  75  66 NE23      30.09S HX  97
ST. MAARTEN    MOSUNNY   86  72  62 E17       30.09  HX  92
ST. THOMAS     CLOUDY    88  73  62 E15       30.11S HX  96

$$



USA.gov is the U.S. government's official web portal to all federal, state and local government web resources and services.